CPA224 KJFK-VHHH

Flight info

Callsign CPA224
Flight time N/A
Altitude 34000
Route GREKI DCT JUDDS DCT CAM DCT YVO DCT 50N080W 55N084W 59N090W 63N100W 65N110W 66N120W 67N130W DCT GOATS DCT BTT NCA30 OME R338 NATES R220 IXE Y88 NAKTU Y12 KOHWA Y54 TURFY Y24 KOSHI Y50 IGMON A1 APU DCT MKG A1 ELATO V522 ABBEY
Aircraft A35K/H-SDE2E3GHIJ3J4J5LM1ORWXY/LB1D1

Departure

Time 2026-05-09 06:24
Airport John F. Kennedy International Airport (KJFK)

Arrival

Time N/A
Airport Hong Kong International Airport (VHHH)
Time Latitude Longitude Altitude Speed Heading
2026-05-09 06:04 40.64790 -73.79351 24 ft 0 kts 158°
2026-05-09 06:14 40.64800 -73.79357 25 ft 2 kts 152°
2026-05-09 06:15 40.64815 -73.79368 25 ft 2 kts 147°
2026-05-09 06:15 40.64827 -73.79381 25 ft 2 kts 126°
2026-05-09 06:15 40.64834 -73.79401 28 ft 2 kts 84°
2026-05-09 06:15 40.64830 -73.79419 29 ft 1 kts 59°
2026-05-09 06:16 40.64830 -73.79420 29 ft 0 kts 59°
2026-05-09 06:17 40.64834 -73.79409 29 ft 4 kts 60°
2026-05-09 06:17 40.64861 -73.79348 27 ft 11 kts 60°
2026-05-09 06:17 40.64908 -73.79241 24 ft 15 kts 60°
2026-05-09 06:18 40.64968 -73.79137 25 ft 9 kts 22°
2026-05-09 06:18 40.64958 -73.79126 25 ft 0 kts 64°
2026-05-09 06:18 40.64968 -73.79100 25 ft 7 kts 63°
2026-05-09 06:18 40.65000 -73.79020 27 ft 13 kts 62°
2026-05-09 06:19 40.65062 -73.78930 29 ft 11 kts 25°
2026-05-09 06:19 40.65121 -73.78888 31 ft 9 kts 49°
2026-05-09 06:19 40.65144 -73.78788 28 ft 14 kts 76°
2026-05-09 06:19 40.65187 -73.78656 30 ft 18 kts 61°
2026-05-09 06:20 40.65248 -73.78510 30 ft 13 kts 62°
2026-05-09 06:20 40.65257 -73.78374 29 ft 17 kts 108°
2026-05-09 06:20 40.65194 -73.78218 29 ft 21 kts 121°
2026-05-09 06:20 40.65110 -73.78036 31 ft 25 kts 121°
2026-05-09 06:21 40.65016 -73.77828 30 ft 28 kts 121°
2026-05-09 06:21 40.64910 -73.77596 27 ft 31 kts 121°
2026-05-09 06:21 40.64807 -73.77371 29 ft 21 kts 121°
2026-05-09 06:21 40.64756 -73.77226 30 ft 14 kts 90°
2026-05-09 06:22 40.64807 -73.77107 27 ft 16 kts 54°
2026-05-09 06:22 40.64880 -73.76971 27 ft 21 kts 54°
2026-05-09 06:22 40.64967 -73.76810 27 ft 17 kts 55°
2026-05-09 06:22 40.64967 -73.76688 28 ft 14 kts 103°
2026-05-09 06:23 40.65032 -73.76580 26 ft 18 kts 31°
2026-05-09 06:23 40.65089 -73.76468 27 ft 16 kts 98°
2026-05-09 06:23 40.65017 -73.76366 28 ft 17 kts 178°
2026-05-09 06:23 40.64895 -73.76448 27 ft 30 kts 211°
2026-05-09 06:24 40.64513 -73.76748 30 ft 97 kts 211°
2026-05-09 06:24 40.63751 -73.77350 27 ft 157 kts 211°
2026-05-09 06:24 40.62706 -73.78167 398 ft 178 kts 210°
2026-05-09 06:24 40.61597 -73.79062 829 ft 195 kts 212°
2026-05-09 06:25 40.60386 -73.79998 1092 ft 207 kts 208°
2026-05-09 06:25 40.58986 -73.80415 1390 ft 219 kts 179°
2026-05-09 06:25 40.57466 -73.79729 1515 ft 242 kts 146°
2026-05-09 06:25 40.56350 -73.77999 1826 ft 257 kts 116°
2026-05-09 06:26 40.55980 -73.75705 2195 ft 267 kts 88°
2026-05-09 06:26 40.56460 -73.73358 2609 ft 271 kts 59°
2026-05-09 06:26 40.57714 -73.71520 3041 ft 271 kts 31°
2026-05-09 06:26 40.59445 -73.70631 3469 ft 267 kts
2026-05-09 06:27 40.61291 -73.70665 3952 ft 265 kts 349°
2026-05-09 06:27 40.63127 -73.70965 4382 ft 268 kts 347°
2026-05-09 06:27 40.64985 -73.71296 4843 ft 271 kts 347°
2026-05-09 06:27 40.66866 -73.71622 5344 ft 272 kts 347°
2026-05-09 06:28 40.68749 -73.71936 5861 ft 274 kts 347°
2026-05-09 06:28 40.70587 -73.72228 6390 ft 275 kts 347°
2026-05-09 06:28 40.72489 -73.72516 6905 ft 276 kts 347°
2026-05-09 06:28 40.74405 -73.72749 7478 ft 278 kts 352°
2026-05-09 06:29 40.76348 -73.72468 8032 ft 286 kts
2026-05-09 06:29 40.78277 -73.71697 8582 ft 292 kts 12°
2026-05-09 06:29 40.80182 -73.70709 9105 ft 296 kts 15°
2026-05-09 06:29 40.82080 -73.69602 9674 ft 298 kts 16°
2026-05-09 06:30 40.83966 -73.68461 10161 ft 302 kts 16°
2026-05-09 06:30 40.85920 -73.67292 10402 ft 314 kts 16°
2026-05-09 06:30 40.87961 -73.66096 10640 ft 326 kts 16°
2026-05-09 06:30 40.90086 -73.64871 10857 ft 339 kts 16°
2026-05-09 06:31 40.92282 -73.63615 11104 ft 350 kts 16°
2026-05-09 06:31 40.94557 -73.62316 11361 ft 362 kts 16°
2026-05-09 06:31 40.96874 -73.60993 11591 ft 373 kts 16°
2026-05-09 06:31 40.99301 -73.59604 11834 ft 384 kts 17°
2026-05-09 06:32 41.01789 -73.58177 12102 ft 394 kts 17°
2026-05-09 06:32 41.04324 -73.56718 12477 ft 400 kts 17°
2026-05-09 06:32 41.06889 -73.55239 12932 ft 404 kts 17°
2026-05-09 06:33 41.12082 -73.52239 13885 ft 410 kts 17°
2026-05-09 06:33 41.14704 -73.50725 14311 ft 413 kts 17°
2026-05-09 06:33 41.17359 -73.49193 14719 ft 416 kts 17°
2026-05-09 06:34 41.22714 -73.46102 15547 ft 423 kts 17°
2026-05-09 06:34 41.25413 -73.44543 15962 ft 426 kts 17°
2026-05-09 06:34 41.28122 -73.42976 16390 ft 428 kts 17°
2026-05-09 06:34 41.30858 -73.41391 16830 ft 431 kts 17°
2026-05-09 06:35 41.33621 -73.39790 17252 ft 434 kts 17°
2026-05-09 06:35 41.36395 -73.38180 17696 ft 436 kts 17°
2026-05-09 06:35 41.39191 -73.36557 18156 ft 438 kts 17°
2026-05-09 06:35 41.41998 -73.34926 18547 ft 442 kts 16°
2026-05-09 06:36 41.44823 -73.33282 18936 ft 446 kts 17°
2026-05-09 06:36 41.47591 -73.31267 19373 ft 460 kts 28°
2026-05-09 06:36 41.50126 -73.28598 19842 ft 469 kts 34°
2026-05-09 06:36 41.52556 -73.25645 20260 ft 476 kts 38°
2026-05-09 06:37 41.54931 -73.22530 20697 ft 481 kts 39°
2026-05-09 06:37 41.57297 -73.19356 21126 ft 483 kts 37°
2026-05-09 06:37 41.59828 -73.16524 21525 ft 478 kts 28°
2026-05-09 06:37 41.62660 -73.14275 21950 ft 471 kts 17°
2026-05-09 06:38 41.65699 -73.12789 22369 ft 461 kts
2026-05-09 06:38 41.68820 -73.12121 22802 ft 450 kts 354°
2026-05-09 06:38 41.71923 -73.12198 23243 ft 443 kts 347°
2026-05-09 06:38 41.74983 -73.12589 23651 ft 442 kts 345°
2026-05-09 06:39 41.78038 -73.13112 24012 ft 442 kts 343°
2026-05-09 06:39 41.81094 -73.13689 24349 ft 444 kts 343°
2026-05-09 06:39 41.84160 -73.14272 24718 ft 445 kts 343°
2026-05-09 06:39 41.87224 -73.14839 25096 ft 446 kts 343°
2026-05-09 06:40 41.90316 -73.15394 25454 ft 448 kts 343°
2026-05-09 06:40 41.93413 -73.15938 25808 ft 449 kts 343°
2026-05-09 06:40 41.96523 -73.16475 26166 ft 450 kts 343°
2026-05-09 06:40 41.99628 -73.17007 26513 ft 452 kts 343°
2026-05-09 06:41 42.02751 -73.17541 26848 ft 453 kts 343°
2026-05-09 06:41 42.05879 -73.18077 27160 ft 454 kts 343°
2026-05-09 06:41 42.08993 -73.18611 27487 ft 456 kts 343°
2026-05-09 06:41 42.12136 -73.19151 27806 ft 457 kts 343°
2026-05-09 06:42 42.15304 -73.19697 28113 ft 458 kts 343°
2026-05-09 06:42 42.18466 -73.20242 28410 ft 459 kts 342°
2026-05-09 06:42 42.21642 -73.20790 28714 ft 460 kts 342°
2026-05-09 06:42 42.24820 -73.21338 29081 ft 459 kts 342°
2026-05-09 06:43 42.27982 -73.21881 29599 ft 455 kts 342°
2026-05-09 06:43 42.31115 -73.22416 30077 ft 452 kts 342°
2026-05-09 06:43 42.34232 -73.22951 30421 ft 451 kts 342°
2026-05-09 06:43 42.37346 -73.23491 30685 ft 451 kts 342°
2026-05-09 06:44 42.40459 -73.24033 30951 ft 451 kts 342°
2026-05-09 06:44 42.43575 -73.24579 31178 ft 451 kts 342°
2026-05-09 06:44 42.46684 -73.25124 31408 ft 451 kts 342°
2026-05-09 06:44 42.49802 -73.25671 31618 ft 451 kts 342°
2026-05-09 06:45 42.52905 -73.26215 31820 ft 451 kts 342°
2026-05-09 06:45 42.56025 -73.26763 31983 ft 451 kts 342°
2026-05-09 06:45 42.59143 -73.27310 32177 ft 452 kts 342°
2026-05-09 06:45 42.62258 -73.27854 32383 ft 452 kts 342°
2026-05-09 06:46 42.65343 -73.28393 32579 ft 451 kts 342°
2026-05-09 06:46 42.68462 -73.28941 32723 ft 452 kts 342°
2026-05-09 06:46 42.71592 -73.29490 32922 ft 453 kts 342°
2026-05-09 06:46 42.74718 -73.30037 33100 ft 453 kts 342°
2026-05-09 06:47 42.77845 -73.30586 33258 ft 453 kts 342°
2026-05-09 06:47 42.80980 -73.31137 33426 ft 454 kts 342°
2026-05-09 06:47 42.84116 -73.31691 33572 ft 454 kts 342°
2026-05-09 06:47 42.87255 -73.32245 33729 ft 455 kts 343°
2026-05-09 06:48 42.90393 -73.32800 33865 ft 455 kts 343°
2026-05-09 06:48 42.93499 -73.33350 34005 ft 456 kts 343°
2026-05-09 06:48 42.99647 -73.35199 34185 ft 442 kts 331°
2026-05-09 06:49 43.05081 -73.38744 34380 ft 433 kts 323°
2026-05-09 06:49 43.10358 -73.42806 34549 ft 433 kts 322°
2026-05-09 06:50 43.15558 -73.46916 34738 ft 434 kts 322°
2026-05-09 06:50 43.20802 -73.51048 34901 ft 436 kts 322°
2026-05-09 06:51 43.26080 -73.55189 35055 ft 437 kts 323°
2026-05-09 06:51 43.31357 -73.59328 35185 ft 438 kts 323°
2026-05-09 06:52 43.36659 -73.63496 35330 ft 439 kts 323°
2026-05-09 06:52 43.41957 -73.67671 35429 ft 440 kts 323°
2026-05-09 06:53 43.47279 -73.71873 35556 ft 441 kts 323°
2026-05-09 06:53 43.52611 -73.76092 35683 ft 442 kts 323°
2026-05-09 06:54 43.57953 -73.80328 35788 ft 443 kts 323°
2026-05-09 06:54 43.63256 -73.84540 35914 ft 444 kts 323°
2026-05-09 06:55 43.68617 -73.88809 36009 ft 444 kts 323°
2026-05-09 06:55 43.73983 -73.93090 36094 ft 445 kts 323°
2026-05-09 06:56 43.79357 -73.97387 36170 ft 446 kts 323°
2026-05-09 06:56 43.84733 -74.01695 36269 ft 447 kts 323°
2026-05-09 06:57 43.90082 -74.05989 36362 ft 447 kts 323°
2026-05-09 06:57 43.95481 -74.10334 36389 ft 449 kts 323°
2026-05-09 06:58 44.00887 -74.14691 36471 ft 449 kts 323°
2026-05-09 06:58 44.06300 -74.19066 36520 ft 450 kts 323°
2026-05-09 06:59 44.11714 -74.23448 36601 ft 451 kts 323°
2026-05-09 06:59 44.16225 -74.27108 36639 ft 451 kts 323°
2026-05-09 07:00 44.22546 -74.32249 36710 ft 452 kts 323°
2026-05-09 07:00 44.27090 -74.35951 36736 ft 452 kts 323°
2026-05-09 07:01 44.32493 -74.40362 36799 ft 453 kts 323°
2026-05-09 07:01 44.37961 -74.44836 36863 ft 453 kts 323°
2026-05-09 07:02 44.43364 -74.49267 36893 ft 454 kts 323°
2026-05-09 07:02 44.48813 -74.53745 36921 ft 454 kts 323°
2026-05-09 07:03 44.54279 -74.58247 36933 ft 456 kts 323°
2026-05-09 07:03 44.59749 -74.62763 36924 ft 457 kts 323°
2026-05-09 07:04 44.65233 -74.67300 36920 ft 459 kts 323°
2026-05-09 07:04 44.70750 -74.71874 36914 ft 460 kts 323°
2026-05-09 07:05 44.76270 -74.76460 36914 ft 462 kts 323°
2026-05-09 07:05 44.81770 -74.81040 36928 ft 462 kts 323°
2026-05-09 07:06 44.87294 -74.85650 36926 ft 462 kts 323°
2026-05-09 07:06 44.92835 -74.90285 36926 ft 462 kts 323°
2026-05-09 07:07 44.98366 -74.94923 36929 ft 462 kts 323°
2026-05-09 07:07 45.03899 -74.99573 36926 ft 463 kts 323°
2026-05-09 07:08 45.09423 -75.04226 36913 ft 463 kts 323°
2026-05-09 07:08 45.14970 -75.08909 36917 ft 463 kts 323°
2026-05-09 07:09 45.20515 -75.13601 36902 ft 464 kts 323°
2026-05-09 07:09 45.26054 -75.18299 36904 ft 464 kts 323°
2026-05-09 07:10 45.31605 -75.23018 36900 ft 465 kts 323°
2026-05-09 07:10 45.37124 -75.27719 36894 ft 465 kts 323°
2026-05-09 07:11 45.42679 -75.32463 36896 ft 465 kts 323°
2026-05-09 07:11 45.48229 -75.37213 36896 ft 465 kts 323°
2026-05-09 07:12 45.53779 -75.41974 36894 ft 465 kts 323°
2026-05-09 07:12 45.59334 -75.46752 36893 ft 465 kts 323°
2026-05-09 07:13 45.64840 -75.51498 36891 ft 465 kts 323°
2026-05-09 07:13 45.70379 -75.56283 36888 ft 465 kts 323°
2026-05-09 07:14 45.75921 -75.61083 36887 ft 466 kts 323°
2026-05-09 07:14 45.81464 -75.65894 36886 ft 466 kts 323°
2026-05-09 07:15 45.87009 -75.70719 36882 ft 466 kts 323°
2026-05-09 07:15 45.92561 -75.75561 36879 ft 466 kts 323°
2026-05-09 07:16 45.98099 -75.80403 36877 ft 466 kts 323°
2026-05-09 07:16 46.03646 -75.85264 36870 ft 467 kts 323°
2026-05-09 07:17 46.09196 -75.90138 36866 ft 467 kts 323°
2026-05-09 07:17 46.14709 -75.94992 36858 ft 467 kts 323°
2026-05-09 07:18 46.20254 -75.99886 36849 ft 467 kts 323°
2026-05-09 07:18 46.25807 -76.04799 36855 ft 468 kts 323°
2026-05-09 07:19 46.31359 -76.09723 36851 ft 468 kts 323°
2026-05-09 07:19 46.36916 -76.14663 36849 ft 469 kts 323°
2026-05-09 07:20 46.42480 -76.19620 36853 ft 469 kts 323°
2026-05-09 07:20 46.48045 -76.24592 36850 ft 470 kts 323°
2026-05-09 07:21 46.53607 -76.29572 36841 ft 470 kts 323°
2026-05-09 07:21 46.59141 -76.34540 36841 ft 470 kts 323°
2026-05-09 07:22 46.64706 -76.39547 36841 ft 471 kts 323°
2026-05-09 07:22 46.70292 -76.44585 36838 ft 471 kts 323°
2026-05-09 07:23 46.75855 -76.49615 36839 ft 471 kts 323°
2026-05-09 07:23 46.81428 -76.54667 36836 ft 471 kts 323°
2026-05-09 07:24 46.86989 -76.59721 36834 ft 471 kts 323°
2026-05-09 07:24 46.92557 -76.64794 36832 ft 471 kts 323°
2026-05-09 07:25 46.98122 -76.69876 36834 ft 472 kts 323°
2026-05-09 07:25 47.03689 -76.74972 36829 ft 472 kts 323°
2026-05-09 07:26 47.09216 -76.80045 36829 ft 472 kts 323°
2026-05-09 07:26 47.14780 -76.85164 36832 ft 472 kts 323°
2026-05-09 07:27 47.20345 -76.90297 36829 ft 472 kts 323°
2026-05-09 07:27 47.25902 -76.95435 36830 ft 472 kts 323°
2026-05-09 07:28 47.31466 -77.00594 36822 ft 472 kts 323°
2026-05-09 07:28 47.37033 -77.05768 36824 ft 473 kts 323°
2026-05-09 07:29 47.42597 -77.10952 36821 ft 473 kts 323°
2026-05-09 07:29 47.48164 -77.16152 36819 ft 473 kts 323°
2026-05-09 07:30 47.53695 -77.21332 36821 ft 473 kts 323°
2026-05-09 07:30 47.59249 -77.26546 36817 ft 473 kts 323°
2026-05-09 07:31 47.64816 -77.31786 36817 ft 474 kts 323°
2026-05-09 07:31 47.70388 -77.37044 36808 ft 474 kts 323°
2026-05-09 07:32 47.75945 -77.42302 36814 ft 474 kts 323°
2026-05-09 07:32 47.81510 -77.47581 36802 ft 474 kts 323°
2026-05-09 07:33 47.89856 -77.55522 36779 ft 474 kts 323°
2026-05-09 07:34 47.95402 -77.60817 36765 ft 474 kts 323°
2026-05-09 07:34 48.00957 -77.66135 36750 ft 474 kts 323°
2026-05-09 07:35 48.06502 -77.71455 36750 ft 474 kts 323°
2026-05-09 07:35 48.12050 -77.76794 36752 ft 474 kts 323°
2026-05-09 07:36 48.17551 -77.82101 36755 ft 474 kts 323°
2026-05-09 07:36 48.22910 -77.87815 36766 ft 471 kts 318°
2026-05-09 07:37 48.28058 -77.93912 36773 ft 471 kts 318°
2026-05-09 07:37 48.33216 -77.99986 36776 ft 472 kts 318°
2026-05-09 07:38 48.38421 -78.06011 36779 ft 472 kts 319°
2026-05-09 07:38 48.43644 -78.12025 36777 ft 473 kts 319°
2026-05-09 07:39 48.48870 -78.18053 36782 ft 473 kts 319°
2026-05-09 07:39 48.54101 -78.24109 36768 ft 474 kts 319°
2026-05-09 07:40 48.59330 -78.30182 36777 ft 475 kts 319°
2026-05-09 07:40 48.64572 -78.36288 36767 ft 475 kts 319°
2026-05-09 07:41 48.69812 -78.42407 36768 ft 476 kts 319°
2026-05-09 07:41 48.75053 -78.48543 36758 ft 476 kts 319°
2026-05-09 07:42 48.80262 -78.54658 36774 ft 476 kts 319°
2026-05-09 07:42 48.85501 -78.60825 36755 ft 477 kts 319°
2026-05-09 07:43 48.90746 -78.67016 36750 ft 477 kts 319°
2026-05-09 07:43 48.95989 -78.73220 36747 ft 477 kts 319°
2026-05-09 07:44 49.01223 -78.79433 36743 ft 477 kts 319°
2026-05-09 07:44 49.06461 -78.85668 36742 ft 477 kts 319°
2026-05-09 07:45 49.11665 -78.91880 36737 ft 478 kts 319°
2026-05-09 07:45 49.16896 -78.98141 36737 ft 478 kts 319°
2026-05-09 07:46 49.22123 -79.04413 36736 ft 478 kts 319°
2026-05-09 07:46 49.27356 -79.10711 36735 ft 478 kts 319°
2026-05-09 07:47 49.32588 -79.17023 36734 ft 478 kts 319°
2026-05-09 07:47 49.36931 -79.22277 36730 ft 479 kts 319°
2026-05-09 07:48 49.42158 -79.28617 36724 ft 479 kts 319°
2026-05-09 07:48 49.47378 -79.34966 36725 ft 478 kts 319°
2026-05-09 07:49 49.52607 -79.41343 36725 ft 479 kts 319°
2026-05-09 07:49 49.57814 -79.47711 36721 ft 479 kts 319°
2026-05-09 07:50 49.63028 -79.54106 36722 ft 479 kts 319°
2026-05-09 07:50 49.68239 -79.60516 36720 ft 479 kts 319°
2026-05-09 07:51 49.73444 -79.66937 36719 ft 478 kts 319°
2026-05-09 07:51 49.78643 -79.73367 36714 ft 478 kts 319°
2026-05-09 07:52 49.83836 -79.79809 36711 ft 478 kts 319°
2026-05-09 07:52 49.88999 -79.86232 36708 ft 479 kts 319°
2026-05-09 07:53 49.94194 -79.92713 36709 ft 478 kts 318°
2026-05-09 07:53 49.99468 -79.99034 36699 ft 481 kts 325°
2026-05-09 07:54 50.05433 -80.03868 36699 ft 484 kts 332°
2026-05-09 07:54 50.11566 -80.08251 36699 ft 485 kts 333°
2026-05-09 07:55 50.17677 -80.12541 36695 ft 485 kts 332°
2026-05-09 07:55 50.23836 -80.16898 36687 ft 485 kts 332°
2026-05-09 07:56 50.29986 -80.21284 36685 ft 485 kts 332°
2026-05-09 07:56 50.36094 -80.25662 36684 ft 485 kts 332°
2026-05-09 07:57 50.42233 -80.30075 36681 ft 486 kts 332°
2026-05-09 07:57 50.48384 -80.34507 36676 ft 486 kts 332°
2026-05-09 07:58 50.54530 -80.38948 36677 ft 486 kts 332°
2026-05-09 07:58 50.60681 -80.43405 36671 ft 486 kts 332°
2026-05-09 07:59 50.66827 -80.47871 36667 ft 487 kts 332°
2026-05-09 07:59 50.72985 -80.52359 36668 ft 487 kts 332°
2026-05-09 08:00 50.79132 -80.56852 36667 ft 487 kts 332°
2026-05-09 08:00 50.85291 -80.61367 36666 ft 488 kts 332°
2026-05-09 08:01 50.91444 -80.65892 36665 ft 488 kts 332°
2026-05-09 08:01 50.97596 -80.70428 36667 ft 488 kts 332°
2026-05-09 08:02 51.03755 -80.74983 36665 ft 488 kts 332°
2026-05-09 08:02 51.09905 -80.79546 36666 ft 488 kts 332°
2026-05-09 08:03 51.16020 -80.84094 36660 ft 488 kts 332°
2026-05-09 08:03 51.22174 -80.88686 36658 ft 488 kts 332°
2026-05-09 08:04 51.28326 -80.93290 36660 ft 488 kts 332°
2026-05-09 08:04 51.34475 -80.97905 36659 ft 488 kts 332°
2026-05-09 08:05 51.40628 -81.02537 36655 ft 488 kts 332°
2026-05-09 08:05 51.46739 -81.07152 36660 ft 488 kts 332°
2026-05-09 08:06 51.52886 -81.11806 36659 ft 489 kts 332°
2026-05-09 08:06 51.59037 -81.16479 36660 ft 489 kts 332°
2026-05-09 08:07 51.65187 -81.21165 36656 ft 489 kts 332°
2026-05-09 08:07 51.71342 -81.25868 36657 ft 489 kts 332°
2026-05-09 08:08 51.77490 -81.30580 36660 ft 489 kts 332°
2026-05-09 08:08 51.83603 -81.35280 36659 ft 489 kts 332°
2026-05-09 08:09 51.89740 -81.40012 36650 ft 490 kts 332°
2026-05-09 08:09 51.95905 -81.44781 36650 ft 490 kts 332°
2026-05-09 08:10 52.02054 -81.49551 36651 ft 489 kts 332°
2026-05-09 08:10 52.08190 -81.54327 36650 ft 489 kts 332°
2026-05-09 08:11 52.14336 -81.59124 36654 ft 489 kts 332°
2026-05-09 08:11 52.20471 -81.63929 36650 ft 489 kts 332°
2026-05-09 08:12 52.29674 -81.71163 36641 ft 489 kts 332°
2026-05-09 08:12 52.35764 -81.75969 36636 ft 489 kts 332°
2026-05-09 08:13 52.41892 -81.80819 36644 ft 489 kts 332°
2026-05-09 08:13 52.48010 -81.85677 36639 ft 489 kts 332°
2026-05-09 08:14 52.54124 -81.90547 36644 ft 489 kts 332°
2026-05-09 08:14 52.60268 -81.95456 36633 ft 490 kts 332°
2026-05-09 08:15 52.66356 -82.00336 36634 ft 490 kts 332°
2026-05-09 08:15 52.72478 -82.05257 36634 ft 490 kts 332°
2026-05-09 08:16 52.78617 -82.10208 36628 ft 490 kts 332°
2026-05-09 08:16 52.84751 -82.15171 36643 ft 490 kts 332°
2026-05-09 08:17 52.90873 -82.20140 36637 ft 490 kts 332°
2026-05-09 08:17 52.97010 -82.25136 36645 ft 491 kts 332°
2026-05-09 08:18 53.03096 -82.30108 36638 ft 491 kts 332°
2026-05-09 08:18 53.09238 -82.35141 36634 ft 491 kts 332°
2026-05-09 08:19 53.15356 -82.40170 36634 ft 492 kts 332°
2026-05-09 08:19 53.21494 -82.45231 36633 ft 492 kts 332°
2026-05-09 08:20 53.27636 -82.50313 36634 ft 492 kts 332°
2026-05-09 08:20 53.33770 -82.55404 36632 ft 492 kts 332°
2026-05-09 08:21 53.39868 -82.60481 36634 ft 492 kts 332°
2026-05-09 08:21 53.46000 -82.65604 36634 ft 492 kts 332°
2026-05-09 08:22 53.52123 -82.70735 36633 ft 492 kts 332°
2026-05-09 08:22 53.58279 -82.75911 36629 ft 493 kts 332°
2026-05-09 08:23 53.64407 -82.81081 36631 ft 493 kts 332°
2026-05-09 08:23 53.70537 -82.86268 36630 ft 493 kts 332°
2026-05-09 08:24 53.76674 -82.91479 36629 ft 493 kts 332°
2026-05-09 08:24 53.82803 -82.96700 36631 ft 493 kts 332°
2026-05-09 08:25 53.88932 -83.01939 36627 ft 493 kts 332°
2026-05-09 08:25 53.95071 -83.07203 36629 ft 494 kts 332°
2026-05-09 08:26 54.01169 -83.12450 36630 ft 494 kts 332°
2026-05-09 08:26 54.07303 -83.17745 36630 ft 494 kts 332°
2026-05-09 08:27 54.13437 -83.23058 36628 ft 494 kts 332°
2026-05-09 08:27 54.19568 -83.28386 36627 ft 495 kts 332°
2026-05-09 08:28 54.25699 -83.33732 36629 ft 495 kts 332°
2026-05-09 08:28 54.31833 -83.39099 36628 ft 495 kts 332°
2026-05-09 08:29 54.37969 -83.44485 36627 ft 495 kts 332°
2026-05-09 08:29 54.44102 -83.49887 36628 ft 495 kts 332°
2026-05-09 08:30 54.50194 -83.55271 36625 ft 495 kts 332°
2026-05-09 08:30 54.56323 -83.60706 36625 ft 495 kts 332°
2026-05-09 08:31 54.62449 -83.66157 36625 ft 496 kts 332°
2026-05-09 08:31 54.68574 -83.71625 36628 ft 496 kts 332°
2026-05-09 08:32 54.74694 -83.77109 36625 ft 496 kts 332°
2026-05-09 08:33 54.83891 -83.85384 36622 ft 496 kts 332°
2026-05-09 08:33 54.89988 -83.90893 36623 ft 496 kts 332°
2026-05-09 08:34 54.96111 -83.96445 36619 ft 496 kts 332°
2026-05-09 08:34 55.02002 -84.02681 36619 ft 496 kts 324°
2026-05-09 08:35 55.06641 -84.08578 36622 ft 496 kts 323°
2026-05-09 08:35 55.12176 -84.15839 36621 ft 497 kts 323°
2026-05-09 08:36 55.17692 -84.23132 36613 ft 497 kts 323°
2026-05-09 08:36 55.23205 -84.30424 36619 ft 497 kts 323°
2026-05-09 08:37 55.28717 -84.37725 36622 ft 497 kts 323°
2026-05-09 08:37 55.34245 -84.45070 36612 ft 496 kts 323°
2026-05-09 08:38 55.39707 -84.52355 36612 ft 496 kts 323°
2026-05-09 08:38 55.45207 -84.59716 36613 ft 497 kts 323°
2026-05-09 08:39 55.50718 -84.67120 36607 ft 497 kts 323°
2026-05-09 08:39 55.56226 -84.74545 36600 ft 497 kts 323°
2026-05-09 08:40 55.61719 -84.81978 36609 ft 497 kts 323°
2026-05-09 08:40 55.67212 -84.89437 36605 ft 497 kts 323°
2026-05-09 08:41 55.72695 -84.96910 36609 ft 497 kts 323°
2026-05-09 08:41 55.78140 -85.04359 36606 ft 497 kts 323°
2026-05-09 08:42 55.83618 -85.11880 36602 ft 497 kts 323°
2026-05-09 08:42 55.89092 -85.19423 36605 ft 497 kts 322°
2026-05-09 08:43 55.94565 -85.26992 36604 ft 497 kts 322°
2026-05-09 08:43 56.00027 -85.34572 36600 ft 497 kts 322°
2026-05-09 08:44 56.05489 -85.42182 36597 ft 497 kts 322°
2026-05-09 08:44 56.10938 -85.49802 36599 ft 497 kts 322°
2026-05-09 08:45 56.16356 -85.57407 36596 ft 497 kts 322°
2026-05-09 08:45 56.21838 -85.65128 36592 ft 497 kts 322°
2026-05-09 08:46 56.27240 -85.72766 36588 ft 497 kts 322°
2026-05-09 08:46 56.32673 -85.80477 36594 ft 497 kts 322°
2026-05-09 08:47 56.38105 -85.88215 36593 ft 497 kts 322°
2026-05-09 08:47 56.43526 -85.95966 36590 ft 497 kts 322°
2026-05-09 08:48 56.48943 -86.03741 36592 ft 497 kts 322°
2026-05-09 08:48 56.54371 -86.11561 36588 ft 497 kts 322°
2026-05-09 08:49 56.59750 -86.19339 36591 ft 497 kts 322°
2026-05-09 08:49 56.65192 -86.27238 36587 ft 497 kts 322°
2026-05-09 08:50 56.70571 -86.35076 36588 ft 497 kts 322°
2026-05-09 08:50 56.75970 -86.42972 36586 ft 497 kts 322°
2026-05-09 08:51 56.81367 -86.50895 36586 ft 497 kts 322°
2026-05-09 08:51 56.86712 -86.58773 36587 ft 497 kts 322°
2026-05-09 08:52 56.92103 -86.66747 36584 ft 497 kts 322°
2026-05-09 08:52 56.97472 -86.74720 36581 ft 497 kts 322°
2026-05-09 08:53 57.02850 -86.82736 36582 ft 497 kts 322°
2026-05-09 08:53 57.08206 -86.90751 36580 ft 497 kts 322°
2026-05-09 08:54 57.13566 -86.98804 36576 ft 497 kts 322°
2026-05-09 08:54 57.18916 -87.06871 36577 ft 497 kts 322°
2026-05-09 08:55 57.24262 -87.14964 36574 ft 497 kts 322°
2026-05-09 08:55 57.29566 -87.23025 36570 ft 497 kts 322°
2026-05-09 08:56 57.34898 -87.31160 36567 ft 497 kts 321°
2026-05-09 08:56 57.40227 -87.39321 36578 ft 496 kts 321°
2026-05-09 08:57 57.45544 -87.47496 36577 ft 496 kts 321°
2026-05-09 08:57 57.50863 -87.55707 36565 ft 496 kts 321°
2026-05-09 08:58 57.56167 -87.63925 36569 ft 496 kts 321°
2026-05-09 08:58 57.61478 -87.72187 36572 ft 496 kts 321°
2026-05-09 08:59 57.66741 -87.80409 36567 ft 496 kts 321°
2026-05-09 08:59 57.72032 -87.88704 36570 ft 496 kts 321°
2026-05-09 09:00 57.77317 -87.97024 36565 ft 496 kts 321°
2026-05-09 09:00 57.82598 -88.05370 36565 ft 496 kts 321°
2026-05-09 09:01 57.87872 -88.13739 36562 ft 496 kts 321°
2026-05-09 09:01 57.93145 -88.22138 36560 ft 496 kts 321°
2026-05-09 09:02 57.98379 -88.30510 36568 ft 496 kts 321°
2026-05-09 09:02 58.03635 -88.38951 36561 ft 496 kts 321°
2026-05-09 09:03 58.08893 -88.47427 36562 ft 496 kts 321°
2026-05-09 09:03 58.14137 -88.55916 36565 ft 496 kts 321°
2026-05-09 09:04 58.19376 -88.64430 36566 ft 496 kts 321°
2026-05-09 09:04 58.24583 -88.72926 36568 ft 496 kts 321°
2026-05-09 09:05 58.29810 -88.81490 36567 ft 496 kts 321°
2026-05-09 09:05 58.35034 -88.90083 36569 ft 496 kts 321°
2026-05-09 09:06 58.40246 -88.98693 36573 ft 496 kts 321°
2026-05-09 09:06 58.45461 -89.07341 36575 ft 496 kts 320°
2026-05-09 09:07 58.50665 -89.16008 36578 ft 496 kts 320°
2026-05-09 09:07 58.55871 -89.24712 36579 ft 496 kts 320°
2026-05-09 09:08 58.61058 -89.33422 36581 ft 496 kts 320°
2026-05-09 09:08 58.66249 -89.42172 36582 ft 496 kts 320°
2026-05-09 09:09 58.71432 -89.50946 36585 ft 496 kts 320°
2026-05-09 09:09 58.76607 -89.59743 36591 ft 496 kts 320°
2026-05-09 09:10 58.81774 -89.68562 36594 ft 496 kts 320°
2026-05-09 09:10 58.86903 -89.77353 36600 ft 496 kts 320°
2026-05-09 09:11 58.92051 -89.86214 36610 ft 496 kts 320°
2026-05-09 09:11 58.97202 -89.95114 36604 ft 496 kts 320°
2026-05-09 09:12 59.02305 -90.04114 36614 ft 496 kts 317°
2026-05-09 09:12 59.07080 -90.13833 36619 ft 497 kts 315°
2026-05-09 09:13 59.11764 -90.23731 36632 ft 497 kts 315°
2026-05-09 09:13 59.16484 -90.33559 36636 ft 497 kts 315°
2026-05-09 09:14 59.21235 -90.43355 36631 ft 497 kts 315°
2026-05-09 09:14 59.25986 -90.53160 36645 ft 497 kts 315°
2026-05-09 09:15 59.30732 -90.62999 36650 ft 497 kts 315°
2026-05-09 09:15 59.35430 -90.72790 36655 ft 497 kts 315°
2026-05-09 09:16 59.40164 -90.82703 36659 ft 497 kts 315°
2026-05-09 09:16 59.47232 -90.97583 36671 ft 496 kts 315°
2026-05-09 09:17 59.51941 -91.07548 36673 ft 496 kts 315°
2026-05-09 09:17 59.56636 -91.17530 36676 ft 496 kts 315°
2026-05-09 09:18 59.61292 -91.27475 36686 ft 496 kts 315°
2026-05-09 09:18 59.65974 -91.37518 36692 ft 496 kts 315°
2026-05-09 09:19 59.70641 -91.47572 36698 ft 496 kts 315°
2026-05-09 09:19 59.75301 -91.57654 36705 ft 496 kts 315°
2026-05-09 09:20 59.79966 -91.67795 36703 ft 496 kts 315°
2026-05-09 09:20 59.83828 -91.76224 36711 ft 496 kts 315°
2026-05-09 09:21 59.88464 -91.86383 36718 ft 496 kts 314°
2026-05-09 09:21 59.93098 -91.96586 36724 ft 496 kts 314°
2026-05-09 09:22 59.97721 -92.06808 36733 ft 496 kts 314°
2026-05-09 09:22 60.02338 -92.17064 36734 ft 496 kts 314°
2026-05-09 09:23 60.06907 -92.27258 36741 ft 496 kts 314°
2026-05-09 09:23 60.11514 -92.37586 36749 ft 496 kts 314°
2026-05-09 09:24 60.16102 -92.47915 36753 ft 496 kts 314°
2026-05-09 09:24 60.20684 -92.58277 36761 ft 496 kts 314°
2026-05-09 09:25 60.25263 -92.68680 36766 ft 496 kts 314°
2026-05-09 09:25 60.29829 -92.79103 36768 ft 496 kts 314°
2026-05-09 09:26 60.34387 -92.89555 36775 ft 496 kts 314°
2026-05-09 09:26 60.38938 -93.00039 36781 ft 496 kts 314°
2026-05-09 09:27 60.43477 -93.10543 36789 ft 496 kts 314°
2026-05-09 09:27 60.47982 -93.21018 36789 ft 496 kts 313°
2026-05-09 09:28 60.52504 -93.31580 36797 ft 496 kts 313°
2026-05-09 09:28 60.57019 -93.42175 36801 ft 495 kts 313°
2026-05-09 09:29 60.61520 -93.52787 36805 ft 495 kts 313°
2026-05-09 09:29 60.66022 -93.63448 36810 ft 495 kts 313°
2026-05-09 09:30 60.70508 -93.74124 36818 ft 495 kts 313°
2026-05-09 09:30 60.74994 -93.84849 36823 ft 496 kts 313°
2026-05-09 09:31 60.79461 -93.95580 36827 ft 496 kts 313°
2026-05-09 09:32 60.86129 -94.11691 36834 ft 496 kts 313°
2026-05-09 09:32 60.90584 -94.22521 36835 ft 496 kts 313°
2026-05-09 09:33 60.95026 -94.33368 36835 ft 496 kts 313°
2026-05-09 09:33 60.99463 -94.44255 36831 ft 496 kts 313°
2026-05-09 09:34 61.03888 -94.55166 36842 ft 496 kts 313°
2026-05-09 09:34 61.08305 -94.66108 36849 ft 496 kts 312°
2026-05-09 09:36 61.25851 -95.10101 36873 ft 495 kts 312°
2026-05-09 09:37 61.30222 -95.21196 36879 ft 495 kts 312°
2026-05-09 09:37 61.34571 -95.32288 36887 ft 495 kts 312°
2026-05-09 09:38 61.38927 -95.43449 36892 ft 495 kts 311°
2026-05-09 09:38 61.43262 -95.54613 36899 ft 495 kts 311°
2026-05-09 09:39 61.47588 -95.65809 36898 ft 495 kts 311°
2026-05-09 09:39 61.51903 -95.77030 36906 ft 494 kts 311°
2026-05-09 09:40 61.56207 -95.88277 36912 ft 494 kts 311°
2026-05-09 09:40 61.60498 -95.99548 36913 ft 494 kts 311°
2026-05-09 09:41 61.64749 -96.10766 36920 ft 494 kts 311°
2026-05-09 09:41 61.69018 -96.22090 36924 ft 493 kts 311°
2026-05-09 09:42 61.73283 -96.33457 36930 ft 493 kts 311°
2026-05-09 09:42 61.77527 -96.44825 36936 ft 493 kts 311°
2026-05-09 09:43 61.81762 -96.56226 36943 ft 493 kts 311°
2026-05-09 09:43 61.85988 -96.67657 36951 ft 493 kts 311°
2026-05-09 09:44 61.90208 -96.79133 36955 ft 492 kts 310°
2026-05-09 09:44 61.94414 -96.90627 36958 ft 492 kts 310°
2026-05-09 09:45 61.98577 -97.02064 36964 ft 492 kts 310°
2026-05-09 09:45 62.02758 -97.13605 36967 ft 492 kts 310°
2026-05-09 09:46 62.06928 -97.25172 36970 ft 492 kts 310°
2026-05-09 09:46 62.11086 -97.36767 36982 ft 492 kts 310°
2026-05-09 09:47 62.15235 -97.48396 36985 ft 492 kts 310°
2026-05-09 09:47 62.19370 -97.60047 36993 ft 491 kts 310°
2026-05-09 09:48 62.23500 -97.71739 36999 ft 491 kts 310°
2026-05-09 09:48 62.27615 -97.83452 37005 ft 491 kts 310°
2026-05-09 09:49 62.31718 -97.95188 37003 ft 491 kts 310°
2026-05-09 09:49 62.35782 -98.06874 37012 ft 491 kts 310°
2026-05-09 09:50 62.39858 -98.18653 37019 ft 491 kts 309°
2026-05-09 09:50 62.43937 -98.30506 37021 ft 490 kts 309°
2026-05-09 09:51 62.47994 -98.42351 37032 ft 490 kts 309°
2026-05-09 09:51 62.52038 -98.54224 37032 ft 489 kts 309°
2026-05-09 09:52 62.56040 -98.66031 37039 ft 489 kts 309°
2026-05-09 09:52 62.60050 -98.77928 37045 ft 488 kts 309°
2026-05-09 09:53 62.64056 -98.89871 37049 ft 488 kts 309°
2026-05-09 09:53 62.68033 -99.01792 37054 ft 488 kts 309°
2026-05-09 09:54 62.72015 -99.13791 37062 ft 487 kts 309°
2026-05-09 09:54 62.75973 -99.25779 37066 ft 487 kts 309°
2026-05-09 09:55 62.79920 -99.37800 37071 ft 487 kts 308°
2026-05-09 09:55 62.83851 -99.49833 37080 ft 486 kts 308°
2026-05-09 09:56 62.87772 -99.61902 37087 ft 486 kts 308°
2026-05-09 09:56 62.91682 -99.73997 37096 ft 486 kts 308°
2026-05-09 09:57 62.95579 -99.86118 37105 ft 485 kts 308°
2026-05-09 09:57 62.99418 -99.98218 37098 ft 486 kts 305°
2026-05-09 09:58 63.02812 -100.11116 37102 ft 487 kts 302°
2026-05-09 09:58 63.06083 -100.24188 37120 ft 487 kts 302°
2026-05-09 09:59 63.09323 -100.37319 37124 ft 487 kts 301°
2026-05-09 09:59 63.12550 -100.50455 37124 ft 486 kts 301°
2026-05-09 10:00 63.15751 -100.63534 37127 ft 486 kts 301°
2026-05-09 10:00 63.18975 -100.76779 37131 ft 486 kts 301°
2026-05-09 10:01 63.22147 -100.89888 37137 ft 485 kts 301°
2026-05-09 10:01 63.25324 -101.03099 37143 ft 485 kts 301°
2026-05-09 10:02 63.28483 -101.16313 37150 ft 484 kts 301°
2026-05-09 10:02 63.31631 -101.29562 37152 ft 483 kts 301°
2026-05-09 10:03 63.34755 -101.42792 37156 ft 483 kts 301°
2026-05-09 10:03 63.37867 -101.56051 37157 ft 482 kts 301°
2026-05-09 10:04 63.40947 -101.69258 37162 ft 482 kts 301°
2026-05-09 10:04 63.44025 -101.82538 37163 ft 481 kts 301°
2026-05-09 10:05 63.47090 -101.95840 37171 ft 481 kts 301°
2026-05-09 10:05 63.50141 -102.09158 37177 ft 481 kts 301°
2026-05-09 10:06 63.53177 -102.22497 37184 ft 480 kts 301°
2026-05-09 10:06 63.56202 -102.35870 37185 ft 480 kts 300°
2026-05-09 10:07 63.59211 -102.49256 37190 ft 480 kts 300°
2026-05-09 10:07 63.61706 -102.60421 37193 ft 480 kts 300°
2026-05-09 10:08 63.64695 -102.73872 37201 ft 480 kts 300°
2026-05-09 10:08 63.67668 -102.87339 37211 ft 480 kts 300°
2026-05-09 10:09 63.70627 -103.00828 37194 ft 480 kts 300°
2026-05-09 10:09 63.73575 -103.14348 37213 ft 481 kts 299°
2026-05-09 10:10 63.76516 -103.27923 37218 ft 481 kts 299°
2026-05-09 10:10 63.79439 -103.41503 37221 ft 481 kts 299°
2026-05-09 10:11 63.82353 -103.55133 37220 ft 481 kts 298°
2026-05-09 10:11 63.85239 -103.68714 37221 ft 481 kts 298°
2026-05-09 10:12 63.88124 -103.82380 37219 ft 481 kts 298°
2026-05-09 10:12 63.91001 -103.96102 37225 ft 481 kts 298°
2026-05-09 10:13 63.93866 -104.09853 37228 ft 481 kts 298°
2026-05-09 10:13 63.96720 -104.23640 37232 ft 481 kts 297°
2026-05-09 10:14 63.99563 -104.37468 37232 ft 481 kts 297°
2026-05-09 10:14 64.02373 -104.51228 37234 ft 482 kts 297°
2026-05-09 10:15 64.05182 -104.65076 37240 ft 482 kts 297°
2026-05-09 10:15 64.07989 -104.79004 37242 ft 482 kts 297°
2026-05-09 10:16 64.10782 -104.92955 37240 ft 482 kts 296°
2026-05-09 10:16 64.13562 -105.06939 37242 ft 483 kts 296°
2026-05-09 10:17 64.16328 -105.20950 37245 ft 483 kts 296°
2026-05-09 10:17 64.19088 -105.35027 37247 ft 484 kts 296°
2026-05-09 10:18 64.21831 -105.49108 37249 ft 484 kts 296°
2026-05-09 10:18 64.24570 -105.63271 37252 ft 485 kts 295°
2026-05-09 10:19 64.27294 -105.77459 37253 ft 485 kts 295°
2026-05-09 10:19 64.30010 -105.91702 37257 ft 486 kts 295°
2026-05-09 10:20 64.32697 -106.05888 37255 ft 486 kts 295°
2026-05-09 10:20 64.35389 -106.20212 37259 ft 487 kts 295°
2026-05-09 10:21 64.38070 -106.34574 37261 ft 487 kts 294°
2026-05-09 10:21 64.40737 -106.48966 37260 ft 487 kts 294°
2026-05-09 10:22 64.43387 -106.63369 37261 ft 486 kts 294°
2026-05-09 10:22 64.46025 -106.77813 37265 ft 486 kts 294°
2026-05-09 10:23 64.48646 -106.92268 37269 ft 486 kts 294°
2026-05-09 10:23 64.51253 -107.06748 37270 ft 486 kts 293°
2026-05-09 10:24 64.53830 -107.21174 37269 ft 486 kts 293°
2026-05-09 10:24 64.56416 -107.35752 37278 ft 486 kts 293°
2026-05-09 10:25 64.58973 -107.50282 37279 ft 486 kts 293°
2026-05-09 10:25 64.61525 -107.64884 37283 ft 486 kts 292°
2026-05-09 10:26 64.64053 -107.79464 37285 ft 485 kts 292°
2026-05-09 10:26 64.66571 -107.94093 37283 ft 485 kts 292°
2026-05-09 10:27 64.69055 -108.08641 37287 ft 485 kts 292°
2026-05-09 10:27 64.71558 -108.23402 37285 ft 485 kts 292°
2026-05-09 10:28 64.74013 -108.38000 37287 ft 485 kts 292°
2026-05-09 10:28 64.76470 -108.52722 37288 ft 485 kts 291°
2026-05-09 10:29 64.78916 -108.67488 37294 ft 485 kts 291°
2026-05-09 10:29 64.81344 -108.82264 37294 ft 485 kts 291°
2026-05-09 10:30 64.83760 -108.97085 37291 ft 485 kts 291°
2026-05-09 10:30 64.86160 -109.11925 37288 ft 486 kts 291°
2026-05-09 10:31 64.88548 -109.26807 37294 ft 486 kts 291°
2026-05-09 10:31 64.90922 -109.41716 37292 ft 486 kts 291°
2026-05-09 10:32 64.93278 -109.56638 37290 ft 486 kts 290°
2026-05-09 10:32 64.95622 -109.71604 37290 ft 486 kts 290°
2026-05-09 10:33 64.97938 -109.86512 37290 ft 486 kts 290°
2026-05-09 10:33 65.00252 -110.01528 37291 ft 486 kts 290°
2026-05-09 10:34 65.02404 -110.16684 37292 ft 486 kts 288°
2026-05-09 10:34 65.05430 -110.39569 37293 ft 485 kts 288°
2026-05-09 10:35 65.07456 -110.54831 37293 ft 485 kts 288°
2026-05-09 10:35 65.09482 -110.70090 37293 ft 485 kts 288°
2026-05-09 10:36 65.11483 -110.85268 37292 ft 485 kts 288°
2026-05-09 10:36 65.13483 -111.00582 37289 ft 485 kts 287°
2026-05-09 10:37 65.15461 -111.15884 37293 ft 485 kts 287°
2026-05-09 10:37 65.17425 -111.31217 37294 ft 484 kts 287°
2026-05-09 10:38 65.19372 -111.46574 37294 ft 484 kts 287°
2026-05-09 10:38 65.21302 -111.61933 37290 ft 484 kts 287°
2026-05-09 10:39 65.23218 -111.77326 37292 ft 484 kts 287°
2026-05-09 10:39 65.25116 -111.92732 37291 ft 484 kts 287°
2026-05-09 10:40 65.26994 -112.08114 37290 ft 484 kts 286°
2026-05-09 10:40 65.28864 -112.23591 37290 ft 483 kts 286°
2026-05-09 10:41 65.30714 -112.39052 37292 ft 484 kts 286°
2026-05-09 10:41 65.32548 -112.54539 37288 ft 483 kts 286°
2026-05-09 10:42 65.34354 -112.69931 37285 ft 484 kts 285°
2026-05-09 10:42 65.36157 -112.85465 37288 ft 483 kts 285°
2026-05-09 10:43 65.37941 -113.00996 37285 ft 483 kts 285°
2026-05-09 10:43 65.39713 -113.16578 37283 ft 483 kts 285°
2026-05-09 10:44 65.41458 -113.32079 37282 ft 483 kts 285°
2026-05-09 10:44 65.43195 -113.47678 37281 ft 483 kts 285°
2026-05-09 10:46 65.47466 -113.86753 37279 ft 483 kts 284°
2026-05-09 10:46 65.49147 -114.02420 37274 ft 483 kts 284°
2026-05-09 10:47 65.50809 -114.18087 37277 ft 483 kts 284°
2026-05-09 10:47 65.52456 -114.33786 37273 ft 483 kts 284°
2026-05-09 10:48 65.54076 -114.49399 37273 ft 482 kts 284°
2026-05-09 10:48 65.55690 -114.65133 37272 ft 483 kts 284°
2026-05-09 10:49 65.57286 -114.80865 37269 ft 482 kts 283°
2026-05-09 10:49 65.58868 -114.96640 37266 ft 482 kts 283°
2026-05-09 10:50 65.60423 -115.12321 37261 ft 482 kts 283°
2026-05-09 10:50 65.61980 -115.28216 37260 ft 482 kts 283°
2026-05-09 10:51 65.63513 -115.44043 37255 ft 483 kts 283°
2026-05-09 10:51 65.65020 -115.59797 37257 ft 483 kts 283°
2026-05-09 10:52 65.66522 -115.75689 37250 ft 483 kts 282°
2026-05-09 10:52 65.68004 -115.91557 37247 ft 483 kts 282°
2026-05-09 10:53 65.69471 -116.07469 37245 ft 483 kts 282°
2026-05-09 10:53 65.70677 -116.20694 37240 ft 483 kts 282°
2026-05-09 10:54 65.72108 -116.36607 37171 ft 476 kts 283°
2026-05-09 10:54 65.73476 -116.52017 37231 ft 460 kts 283°
2026-05-09 10:55 65.74810 -116.67170 37230 ft 458 kts 283°
2026-05-09 10:55 65.76132 -116.82362 37231 ft 458 kts 283°
2026-05-09 10:56 65.77434 -116.97536 37224 ft 458 kts 282°
2026-05-09 10:56 65.78720 -117.12724 37212 ft 458 kts 282°
2026-05-09 10:57 65.79986 -117.27859 37210 ft 458 kts 282°
2026-05-09 10:57 65.81244 -117.43105 37203 ft 458 kts 282°
2026-05-09 10:58 65.82486 -117.58353 37207 ft 458 kts 282°
2026-05-09 10:58 65.83714 -117.73628 37202 ft 459 kts 281°
2026-05-09 10:59 65.84927 -117.88915 37190 ft 459 kts 281°
2026-05-09 10:59 65.86125 -118.04228 37192 ft 459 kts 281°
2026-05-09 11:00 65.87307 -118.19545 37185 ft 459 kts 281°
2026-05-09 11:00 65.88474 -118.34880 37181 ft 459 kts 281°
2026-05-09 11:01 65.89627 -118.50243 37172 ft 459 kts 281°
2026-05-09 11:01 65.90765 -118.65623 37167 ft 459 kts 280°
2026-05-09 11:02 65.91887 -118.81012 37168 ft 459 kts 280°
2026-05-09 11:02 65.92994 -118.96418 37159 ft 459 kts 280°
2026-05-09 11:03 65.94079 -119.11752 37155 ft 460 kts 279°
2026-05-09 11:03 65.95158 -119.27223 37153 ft 460 kts 279°
2026-05-09 11:04 65.96219 -119.42677 37152 ft 460 kts 279°
2026-05-09 11:04 65.97268 -119.58191 37141 ft 460 kts 279°
2026-05-09 11:05 65.98299 -119.73686 37139 ft 460 kts 279°
2026-05-09 11:05 65.99316 -119.89206 37135 ft 460 kts 279°
2026-05-09 11:06 66.00690 -120.04541 37126 ft 460 kts 286°
2026-05-09 11:06 66.02646 -120.19534 37119 ft 461 kts 287°
2026-05-09 11:07 66.04677 -120.34508 37117 ft 461 kts 287°
2026-05-09 11:07 66.06703 -120.49522 37113 ft 462 kts 287°
2026-05-09 11:08 66.08705 -120.64563 37106 ft 462 kts 287°
2026-05-09 11:08 66.10686 -120.79637 37113 ft 462 kts 287°
2026-05-09 11:09 66.12639 -120.94633 37102 ft 462 kts 287°
2026-05-09 11:09 66.14594 -121.09778 37098 ft 462 kts 287°
2026-05-09 11:10 66.16534 -121.24945 37102 ft 462 kts 286°
2026-05-09 11:10 66.18460 -121.40141 37097 ft 462 kts 286°
2026-05-09 11:11 66.20370 -121.55354 37089 ft 463 kts 286°
2026-05-09 11:11 66.22267 -121.70603 37088 ft 463 kts 286°
2026-05-09 11:12 66.24145 -121.85844 37084 ft 463 kts 285°
2026-05-09 11:12 66.26002 -122.01053 37077 ft 463 kts 285°
2026-05-09 11:13 66.27853 -122.16367 37073 ft 463 kts 285°
2026-05-09 11:13 66.29691 -122.31710 37069 ft 463 kts 285°
2026-05-09 11:14 66.31514 -122.47080 37066 ft 464 kts 285°
2026-05-09 11:14 66.33325 -122.62510 37063 ft 464 kts 285°
2026-05-09 11:15 66.35121 -122.77952 37053 ft 464 kts 284°
2026-05-09 11:15 66.36889 -122.93307 37055 ft 464 kts 284°
2026-05-09 11:16 66.38654 -123.08796 37050 ft 464 kts 284°
2026-05-09 11:16 66.40404 -123.24306 37047 ft 465 kts 284°
2026-05-09 11:17 66.42141 -123.39862 37046 ft 465 kts 284°
2026-05-09 11:17 66.43863 -123.55442 37040 ft 465 kts 284°
2026-05-09 11:18 66.45571 -123.71065 37039 ft 465 kts 283°
2026-05-09 11:18 66.47265 -123.86711 37032 ft 465 kts 283°
2026-05-09 11:19 66.48930 -124.02268 37029 ft 466 kts 283°
2026-05-09 11:19 66.50592 -124.17947 37023 ft 466 kts 283°
2026-05-09 11:20 66.52241 -124.33690 37018 ft 466 kts 283°
2026-05-09 11:20 66.53875 -124.49450 37015 ft 466 kts 283°
2026-05-09 11:21 66.55483 -124.65132 37010 ft 466 kts 282°
2026-05-09 11:21 66.57086 -124.80942 37006 ft 466 kts 282°
2026-05-09 11:22 66.58670 -124.96747 37001 ft 467 kts 282°
2026-05-09 11:22 66.60242 -125.12606 37000 ft 467 kts 282°
2026-05-09 11:23 66.61797 -125.28474 36992 ft 467 kts 282°
2026-05-09 11:23 66.63326 -125.44259 36986 ft 467 kts 282°
2026-05-09 11:24 66.64850 -125.60183 36979 ft 467 kts 281°
2026-05-09 11:24 66.66356 -125.76103 36976 ft 467 kts 281°
2026-05-09 11:25 66.67849 -125.92082 36965 ft 467 kts 281°
2026-05-09 11:25 66.69324 -126.08051 36959 ft 467 kts 281°
2026-05-09 11:26 66.70775 -126.23951 36952 ft 467 kts 281°
2026-05-09 11:26 66.72220 -126.39989 36945 ft 468 kts 281°
2026-05-09 11:27 66.73648 -126.56042 36944 ft 468 kts 280°
2026-05-09 11:27 66.75063 -126.72140 36940 ft 468 kts 280°
2026-05-09 11:28 66.76451 -126.88148 36941 ft 468 kts 280°
2026-05-09 11:28 66.77835 -127.04299 36940 ft 468 kts 280°
2026-05-09 11:29 66.79197 -127.20414 36924 ft 469 kts 279°
2026-05-09 11:29 66.80548 -127.36619 36919 ft 469 kts 279°
2026-05-09 11:30 66.81881 -127.52815 36915 ft 469 kts 279°
2026-05-09 11:30 66.83199 -127.69049 36913 ft 470 kts 279°
2026-05-09 11:31 66.84501 -127.85316 36910 ft 470 kts 279°
2026-05-09 11:31 66.85787 -128.01597 36907 ft 470 kts 279°
2026-05-09 11:32 66.87058 -128.17919 36910 ft 471 kts 278°
2026-05-09 11:32 66.88292 -128.34009 36906 ft 471 kts 278°
2026-05-09 11:33 66.89531 -128.50388 36904 ft 471 kts 278°
2026-05-09 11:33 66.91359 -128.75004 36901 ft 472 kts 278°
2026-05-09 11:34 66.92559 -128.91471 36901 ft 472 kts 278°
2026-05-09 11:34 66.93741 -129.07931 36899 ft 472 kts 278°
2026-05-09 11:35 66.94909 -129.24458 36899 ft 473 kts 278°
2026-05-09 11:35 66.96059 -129.40989 36895 ft 473 kts 277°
2026-05-09 11:36 66.97191 -129.57534 36892 ft 473 kts 277°
2026-05-09 11:36 66.98309 -129.74124 36894 ft 473 kts 277°
2026-05-09 11:37 66.99401 -129.90607 36889 ft 474 kts 277°
2026-05-09 11:37 67.00138 -130.07313 36886 ft 472 kts 271°
2026-05-09 11:38 67.00495 -130.24053 36888 ft 472 kts 270°
2026-05-09 11:38 67.00783 -130.40847 36881 ft 472 kts 270°
2026-05-09 11:39 67.01052 -130.57643 36884 ft 472 kts 270°
2026-05-09 11:40 67.01393 -130.79995 36883 ft 473 kts 270°
2026-05-09 11:40 67.01634 -130.96836 36887 ft 473 kts 270°
2026-05-09 11:41 67.01855 -131.13661 36880 ft 473 kts 270°
2026-05-09 11:41 67.02059 -131.30508 36882 ft 474 kts 269°
2026-05-09 11:42 67.02246 -131.47378 36882 ft 474 kts 269°
2026-05-09 11:42 67.02414 -131.64236 36883 ft 474 kts 269°
2026-05-09 11:43 67.02565 -131.81154 36888 ft 475 kts 269°
2026-05-09 11:43 67.02698 -131.98052 36889 ft 475 kts 269°
2026-05-09 11:44 67.02813 -132.14967 36899 ft 475 kts 269°
2026-05-09 11:44 67.02910 -132.31789 36902 ft 476 kts 269°
2026-05-09 11:45 67.02989 -132.48835 36908 ft 476 kts 268°
2026-05-09 11:45 67.03051 -132.65689 36914 ft 476 kts 268°
2026-05-09 11:46 67.03094 -132.82685 36914 ft 476 kts 268°
2026-05-09 11:46 67.03119 -132.99660 36925 ft 477 kts 268°
2026-05-09 11:47 67.03127 -133.16608 36924 ft 477 kts 268°
2026-05-09 11:47 67.03116 -133.33620 36935 ft 477 kts 268°
2026-05-09 11:48 67.03087 -133.50590 36941 ft 477 kts 267°
2026-05-09 11:48 67.03040 -133.67466 36947 ft 477 kts 267°
2026-05-09 11:49 67.02975 -133.84456 36953 ft 477 kts 267°
2026-05-09 11:49 67.02892 -134.01456 36958 ft 477 kts 267°
2026-05-09 11:50 67.02791 -134.18444 36964 ft 477 kts 266°
2026-05-09 11:50 67.02671 -134.35436 36968 ft 477 kts 266°
2026-05-09 11:51 67.02534 -134.52432 36972 ft 477 kts 266°
2026-05-09 11:51 67.02379 -134.69314 36981 ft 477 kts 266°
2026-05-09 11:52 67.02205 -134.86315 36983 ft 478 kts 266°
2026-05-09 11:52 67.02013 -135.03315 36976 ft 478 kts 266°
2026-05-09 11:53 67.01803 -135.20329 36981 ft 478 kts 266°
2026-05-09 11:53 67.01575 -135.37331 36982 ft 478 kts 265°
2026-05-09 11:54 67.01328 -135.54379 36980 ft 479 kts 265°
2026-05-09 11:54 67.01064 -135.71377 36978 ft 479 kts 265°
2026-05-09 11:55 67.00780 -135.88415 36950 ft 479 kts 265°
2026-05-09 11:56 66.99822 -136.39404 36909 ft 480 kts 265°
2026-05-09 11:57 66.99465 -136.56447 36893 ft 480 kts 264°
2026-05-09 11:57 66.99090 -136.73492 36885 ft 480 kts 264°
2026-05-09 11:58 66.98696 -136.90561 36884 ft 481 kts 264°
2026-05-09 11:58 66.98284 -137.07619 36884 ft 481 kts 264°
2026-05-09 11:59 66.97854 -137.24665 36888 ft 481 kts 264°
2026-05-09 11:59 66.97404 -137.41740 36891 ft 481 kts 264°
2026-05-09 12:00 66.96940 -137.58673 36890 ft 481 kts 263°
2026-05-09 12:00 66.96454 -137.75734 36891 ft 481 kts 263°
2026-05-09 12:01 66.95950 -137.92795 36895 ft 482 kts 263°
2026-05-09 12:01 66.95428 -138.09834 36894 ft 482 kts 263°
2026-05-09 12:02 66.94886 -138.26911 36889 ft 482 kts 263°
2026-05-09 12:02 66.94330 -138.43856 36887 ft 482 kts 263°
2026-05-09 12:03 66.93753 -138.60878 36891 ft 482 kts 263°
2026-05-09 12:03 66.93156 -138.77936 36888 ft 482 kts 262°
2026-05-09 12:04 66.92541 -138.94975 36887 ft 483 kts 262°
2026-05-09 12:04 66.91907 -139.12013 36886 ft 483 kts 262°
2026-05-09 12:05 66.91255 -139.29045 36879 ft 483 kts 262°
2026-05-09 12:05 66.90586 -139.46056 36880 ft 482 kts 262°
2026-05-09 12:06 66.89903 -139.62940 36875 ft 482 kts 262°
2026-05-09 12:06 66.89192 -139.80043 36867 ft 483 kts 261°
2026-05-09 12:07 66.88473 -139.96918 36862 ft 483 kts 261°
2026-05-09 12:07 66.87730 -140.13893 36857 ft 483 kts 261°
2026-05-09 12:08 66.86969 -140.30879 36846 ft 483 kts 261°
2026-05-09 12:08 66.86191 -140.47837 36840 ft 483 kts 261°
2026-05-09 12:09 66.85393 -140.64791 36837 ft 483 kts 261°
2026-05-09 12:09 66.84577 -140.81762 36825 ft 483 kts 261°
2026-05-09 12:10 66.84266 -141.15907 36807 ft 488 kts 272°
2026-05-09 12:11 66.84916 -141.33089 36783 ft 488 kts 273°
2026-05-09 12:11 66.85584 -141.50139 36786 ft 488 kts 273°
2026-05-09 12:12 66.86221 -141.67322 36784 ft 488 kts 272°
2026-05-09 12:12 66.86826 -141.84530 36780 ft 488 kts 272°
2026-05-09 12:13 66.87409 -142.01763 36776 ft 488 kts 272°
2026-05-09 12:13 66.87970 -142.18902 36779 ft 488 kts 272°
2026-05-09 12:14 66.88516 -142.36130 36780 ft 488 kts 271°
2026-05-09 12:14 66.89044 -142.53370 36783 ft 488 kts 271°
2026-05-09 12:15 66.89553 -142.70606 36782 ft 488 kts 271°
2026-05-09 12:15 66.90040 -142.87741 36785 ft 488 kts 271°
2026-05-09 12:16 66.90511 -143.04983 36781 ft 488 kts 271°
2026-05-09 12:16 66.90964 -143.22262 36779 ft 488 kts 271°
2026-05-09 12:17 66.91398 -143.39544 36776 ft 488 kts 270°
2026-05-09 12:17 66.91811 -143.56725 36773 ft 489 kts 270°
2026-05-09 12:18 66.92208 -143.74031 36774 ft 489 kts 270°
2026-05-09 12:18 66.92586 -143.91329 36776 ft 488 kts 270°
2026-05-09 12:19 66.92944 -144.08613 36778 ft 489 kts 270°
2026-05-09 12:19 66.93284 -144.25934 36774 ft 489 kts 270°
2026-05-09 12:20 66.93606 -144.43286 36772 ft 489 kts 270°
2026-05-09 12:20 66.93909 -144.60633 36773 ft 490 kts 269°
2026-05-09 12:21 66.94194 -144.78001 36770 ft 490 kts 269°
2026-05-09 12:21 66.94457 -144.95266 36770 ft 490 kts 269°
2026-05-09 12:22 66.94705 -145.12747 36770 ft 490 kts 269°
2026-05-09 12:22 66.94932 -145.30116 36768 ft 490 kts 269°
2026-05-09 12:23 66.95139 -145.47402 36768 ft 491 kts 269°
2026-05-09 12:23 66.95329 -145.64822 36770 ft 491 kts 269°
2026-05-09 12:24 66.95500 -145.82261 36771 ft 491 kts 268°
2026-05-09 12:24 66.95652 -145.99721 36774 ft 492 kts 268°
2026-05-09 12:25 66.95785 -146.17202 36778 ft 492 kts 268°
2026-05-09 12:25 66.95898 -146.34552 36780 ft 492 kts 268°
2026-05-09 12:26 66.95992 -146.52002 36784 ft 492 kts 268°
2026-05-09 12:26 66.96068 -146.69495 36786 ft 492 kts 268°
2026-05-09 12:27 66.96124 -146.86982 36784 ft 493 kts 268°
2026-05-09 12:27 66.96161 -147.04489 36787 ft 493 kts 267°
2026-05-09 12:28 66.96177 -147.19020 36790 ft 493 kts 267°
2026-05-09 12:28 66.96178 -147.36525 36782 ft 493 kts 267°
2026-05-09 12:29 66.96160 -147.54079 36785 ft 494 kts 267°
2026-05-09 12:29 66.96124 -147.71608 36780 ft 494 kts 267°
2026-05-09 12:30 66.96068 -147.89076 36778 ft 494 kts 267°
2026-05-09 12:30 66.95948 -148.15425 36769 ft 495 kts 266°
2026-05-09 12:31 66.95784 -148.41806 36767 ft 496 kts 266°
2026-05-09 12:32 66.95650 -148.59412 36766 ft 496 kts 266°
2026-05-09 12:32 66.95496 -148.77048 36765 ft 496 kts 266°
2026-05-09 12:33 66.95322 -148.94670 36762 ft 497 kts 266°
2026-05-09 12:33 66.95129 -149.12285 36758 ft 497 kts 266°
2026-05-09 12:34 66.94918 -149.29796 36759 ft 497 kts 266°
2026-05-09 12:34 66.94686 -149.47431 36749 ft 497 kts 266°
2026-05-09 12:35 66.94434 -149.65065 36746 ft 498 kts 265°
2026-05-09 12:35 66.94162 -149.82724 36742 ft 498 kts 265°
2026-05-09 12:36 66.93870 -150.00398 36740 ft 498 kts 265°
2026-05-09 12:36 66.93558 -150.18047 36734 ft 499 kts 265°
2026-05-09 12:37 66.93227 -150.35728 36735 ft 499 kts 265°
2026-05-09 12:37 66.92878 -150.53302 36736 ft 499 kts 265°
2026-05-09 12:38 66.92508 -150.70989 36734 ft 500 kts 265°
2026-05-09 12:38 66.92118 -150.88655 36736 ft 500 kts 265°
2026-05-09 12:39 66.91707 -151.06365 36734 ft 500 kts 265°
2026-05-09 12:39 66.91277 -151.24047 36726 ft 500 kts 264°
2026-05-09 12:40 66.90826 -151.41762 36722 ft 501 kts 264°
2026-05-09 12:40 66.89779 -151.59223 36732 ft 498 kts 253°
2026-05-09 12:41 66.87871 -151.76169 36722 ft 498 kts 251°
2026-05-09 12:41 66.85809 -151.93009 36722 ft 499 kts 251°
2026-05-09 12:42 66.83739 -152.09692 36737 ft 499 kts 251°
2026-05-09 12:42 66.81648 -152.26528 36750 ft 500 kts 251°
2026-05-09 12:43 66.79547 -152.43346 36754 ft 500 kts 250°
2026-05-09 12:43 66.77430 -152.60142 36739 ft 501 kts 250°
2026-05-09 12:44 66.75288 -152.76960 36738 ft 501 kts 250°
2026-05-09 12:44 66.73127 -152.93752 36737 ft 502 kts 250°
2026-05-09 12:45 66.70947 -153.10520 36734 ft 502 kts 250°
2026-05-09 12:45 66.68747 -153.27278 36736 ft 503 kts 250°
2026-05-09 12:46 66.66524 -153.44037 36736 ft 504 kts 250°
2026-05-09 12:46 66.64297 -153.60669 36733 ft 504 kts 250°
2026-05-09 12:47 66.62038 -153.77385 36736 ft 505 kts 249°
2026-05-09 12:47 66.59756 -153.94093 36732 ft 505 kts 249°
2026-05-09 12:48 66.57451 -154.10821 36734 ft 506 kts 249°
2026-05-09 12:48 66.55127 -154.27519 36730 ft 506 kts 249°
2026-05-09 12:49 66.52782 -154.44215 36727 ft 507 kts 249°
2026-05-09 12:49 66.50419 -154.60885 36723 ft 508 kts 249°
2026-05-09 12:50 66.48034 -154.77538 36727 ft 508 kts 249°
2026-05-09 12:50 66.45628 -154.94186 36730 ft 508 kts 249°
2026-05-09 12:51 66.43204 -155.10811 36725 ft 509 kts 249°
2026-05-09 12:51 66.40779 -155.27290 36729 ft 509 kts 249°
2026-05-09 12:52 66.38315 -155.43880 36729 ft 509 kts 249°
2026-05-09 12:52 66.35838 -155.60405 36732 ft 509 kts 249°
2026-05-09 12:53 66.33354 -155.76830 36732 ft 509 kts 249°
2026-05-09 12:53 66.30837 -155.93330 36732 ft 509 kts 248°
2026-05-09 12:54 66.28301 -156.09805 36733 ft 510 kts 248°
2026-05-09 12:54 66.25767 -156.26119 36736 ft 510 kts 248°
2026-05-09 12:55 66.23197 -156.42518 36737 ft 510 kts 248°
2026-05-09 12:55 66.20610 -156.58887 36735 ft 510 kts 248°
2026-05-09 12:56 66.18001 -156.75250 36730 ft 511 kts 248°
2026-05-09 12:56 66.15371 -156.91602 36713 ft 512 kts 248°
2026-05-09 12:57 66.12720 -157.07942 36697 ft 513 kts 248°
2026-05-09 12:57 66.10044 -157.24298 36683 ft 514 kts 247°
2026-05-09 12:58 66.07350 -157.40623 36666 ft 514 kts 247°
2026-05-09 12:58 66.04652 -157.56833 36654 ft 514 kts 247°
2026-05-09 12:59 66.01931 -157.73047 36643 ft 513 kts 247°
2026-05-09 12:59 65.99186 -157.89261 36646 ft 513 kts 247°
2026-05-09 13:00 65.96429 -158.05415 36648 ft 513 kts 247°
2026-05-09 13:00 65.93653 -158.21549 36650 ft 514 kts 247°
2026-05-09 13:01 65.90856 -158.37669 36658 ft 514 kts 247°
2026-05-09 13:01 65.88044 -158.53746 36664 ft 514 kts 246°
2026-05-09 13:02 65.85212 -158.69800 36672 ft 514 kts 246°
2026-05-09 13:02 65.82367 -158.85804 36676 ft 514 kts 246°
2026-05-09 13:03 65.79497 -159.01813 36684 ft 514 kts 246°
2026-05-09 13:03 65.76634 -159.17659 36712 ft 515 kts 246°
2026-05-09 13:04 65.73736 -159.33569 36747 ft 515 kts 246°
2026-05-09 13:04 65.70814 -159.49486 36784 ft 515 kts 246°
2026-05-09 13:05 65.67873 -159.65381 36795 ft 516 kts 246°
2026-05-09 13:05 65.64918 -159.81228 36798 ft 516 kts 246°
2026-05-09 13:06 65.61946 -159.97038 36793 ft 516 kts 246°
2026-05-09 13:06 65.58955 -160.12825 36794 ft 516 kts 246°
2026-05-09 13:07 65.55965 -160.28486 36792 ft 516 kts 246°
2026-05-09 13:07 65.52940 -160.44212 36785 ft 516 kts 246°
2026-05-09 13:08 65.49896 -160.59912 36786 ft 517 kts 245°
2026-05-09 13:08 65.46836 -160.75578 36781 ft 517 kts 245°
2026-05-09 13:09 65.43754 -160.91233 36775 ft 517 kts 245°
2026-05-09 13:09 65.40663 -161.06820 36775 ft 517 kts 245°
2026-05-09 13:10 65.37569 -161.22299 36778 ft 518 kts 245°
2026-05-09 13:10 65.34436 -161.37861 36775 ft 518 kts 245°
2026-05-09 13:11 65.31288 -161.53382 36773 ft 518 kts 245°
2026-05-09 13:11 65.28127 -161.68849 36774 ft 518 kts 245°
2026-05-09 13:12 65.24945 -161.84305 36779 ft 519 kts 245°
2026-05-09 13:12 65.21748 -161.99718 36781 ft 519 kts 245°
2026-05-09 13:13 65.18532 -162.15112 36785 ft 519 kts 245°
2026-05-09 13:13 65.15318 -162.30380 36791 ft 519 kts 245°
2026-05-09 13:14 65.12047 -162.45812 36791 ft 519 kts 244°
2026-05-09 13:16 64.98904 -163.06696 36788 ft 520 kts 244°
2026-05-09 13:16 64.96136 -163.19296 36783 ft 520 kts 244°
2026-05-09 13:17 64.92787 -163.34445 36780 ft 520 kts 244°
2026-05-09 13:17 64.89423 -163.49556 36772 ft 520 kts 244°
2026-05-09 13:18 64.86061 -163.64554 36780 ft 520 kts 244°
2026-05-09 13:18 64.82669 -163.79580 36771 ft 520 kts 244°
2026-05-09 13:19 64.79242 -163.94653 36774 ft 520 kts 244°
2026-05-09 13:19 64.75843 -164.09502 36799 ft 520 kts 244°
2026-05-09 13:20 64.72399 -164.24443 36811 ft 520 kts 244°
2026-05-09 13:20 64.68950 -164.39301 36805 ft 520 kts 244°
2026-05-09 13:21 64.65485 -164.54130 36803 ft 520 kts 244°
2026-05-09 13:21 64.61999 -164.68945 36798 ft 520 kts 244°
2026-05-09 13:22 64.58500 -164.83714 36796 ft 520 kts 244°
2026-05-09 13:22 64.54988 -164.98441 36797 ft 521 kts 244°
2026-05-09 13:23 64.46099 -165.35074 36798 ft 521 kts 242°
2026-05-09 13:24 64.42354 -165.49466 36793 ft 522 kts 242°
2026-05-09 13:24 64.38597 -165.63738 36795 ft 522 kts 242°
2026-05-09 13:25 64.34813 -165.78134 36794 ft 522 kts 242°
2026-05-09 13:26 64.29147 -165.99615 36797 ft 522 kts 242°
2026-05-09 13:26 64.25379 -166.13789 36800 ft 522 kts 242°
2026-05-09 13:27 64.21574 -166.28010 36799 ft 522 kts 242°
2026-05-09 13:27 64.17758 -166.42182 36805 ft 522 kts 242°
2026-05-09 13:28 64.13932 -166.56299 36822 ft 521 kts 242°
2026-05-09 13:28 64.10105 -166.70427 36803 ft 521 kts 242°
2026-05-09 13:29 64.06285 -166.84503 36814 ft 521 kts 242°
2026-05-09 13:29 64.02445 -166.98563 36817 ft 521 kts 242°
2026-05-09 13:30 63.98593 -167.12570 36820 ft 521 kts 242°
2026-05-09 13:30 63.94752 -167.26444 36824 ft 521 kts 242°
2026-05-09 13:31 63.90874 -167.40367 36827 ft 521 kts 242°
2026-05-09 13:31 63.86990 -167.54224 36828 ft 520 kts 242°
2026-05-09 13:32 63.83089 -167.68058 36829 ft 520 kts 242°
2026-05-09 13:32 63.77214 -167.88732 36845 ft 520 kts 241°
2026-05-09 13:33 63.73285 -168.02452 36842 ft 520 kts 241°
2026-05-09 13:33 63.69363 -168.16067 36847 ft 520 kts 241°
2026-05-09 13:34 63.65409 -168.29707 36852 ft 520 kts 241°
2026-05-09 13:34 63.61443 -168.43307 36855 ft 520 kts 241°
2026-05-09 13:35 63.57464 -168.56872 36860 ft 520 kts 240°
2026-05-09 13:35 63.53472 -168.70396 36864 ft 520 kts 240°
2026-05-09 13:36 63.49476 -168.83856 36865 ft 520 kts 240°
2026-05-09 13:36 63.45454 -168.97322 36864 ft 519 kts 240°
2026-05-09 13:37 63.41429 -169.10720 36878 ft 519 kts 240°
2026-05-09 13:37 63.37396 -169.24062 36870 ft 518 kts 240°
2026-05-09 13:38 63.33356 -169.37357 36885 ft 518 kts 240°
2026-05-09 13:38 63.29315 -169.50613 36880 ft 517 kts 239°
2026-05-09 13:39 63.25264 -169.63820 36882 ft 517 kts 239°
2026-05-09 13:39 63.21198 -169.76999 36880 ft 517 kts 239°
2026-05-09 13:40 63.17150 -169.90045 36883 ft 517 kts 239°
2026-05-09 13:40 63.13068 -170.03128 36890 ft 516 kts 239°
2026-05-09 13:41 63.08989 -170.16127 36895 ft 516 kts 239°
2026-05-09 13:41 63.04880 -170.29144 36894 ft 516 kts 238°
2026-05-09 13:42 63.00769 -170.42095 36895 ft 516 kts 238°
2026-05-09 13:42 62.96646 -170.55008 36896 ft 515 kts 238°
2026-05-09 13:43 62.92509 -170.67890 36897 ft 515 kts 238°
2026-05-09 13:43 62.88388 -170.80647 36898 ft 515 kts 238°
2026-05-09 13:44 62.84238 -170.93429 36901 ft 515 kts 237°
2026-05-09 13:44 62.80083 -171.06153 36903 ft 514 kts 237°
2026-05-09 13:45 62.75918 -171.18838 36904 ft 513 kts 237°
2026-05-09 13:45 62.71747 -171.31471 36908 ft 513 kts 237°
2026-05-09 13:46 62.67565 -171.44066 36907 ft 512 kts 237°
2026-05-09 13:46 62.63376 -171.56612 36910 ft 512 kts 237°
2026-05-09 13:47 62.59173 -171.69139 36911 ft 512 kts 237°
2026-05-09 13:47 62.54973 -171.81613 36921 ft 512 kts 236°
2026-05-09 13:48 62.50791 -171.93948 36903 ft 511 kts 236°
2026-05-09 13:48 62.46574 -172.06318 36919 ft 511 kts 236°
2026-05-09 13:49 62.42352 -172.18644 36921 ft 510 kts 236°
2026-05-09 13:49 62.38119 -172.30936 36922 ft 510 kts 235°
2026-05-09 13:50 62.33878 -172.43185 36920 ft 510 kts 235°
2026-05-09 13:50 62.29628 -172.55395 36929 ft 509 kts 235°
2026-05-09 13:51 62.25381 -172.67532 36932 ft 509 kts 235°
2026-05-09 13:51 62.21112 -172.79666 36932 ft 508 kts 234°
2026-05-09 13:52 62.16844 -172.91731 36934 ft 508 kts 234°
2026-05-09 13:52 62.12573 -173.03742 36940 ft 507 kts 234°
2026-05-09 13:53 62.08318 -173.15649 36941 ft 507 kts 234°
2026-05-09 13:53 62.04027 -173.27592 36942 ft 507 kts 234°
2026-05-09 13:54 61.99726 -173.39501 36945 ft 506 kts 233°
2026-05-09 13:54 61.95421 -173.51360 36945 ft 506 kts 233°
2026-05-09 13:55 61.91115 -173.63157 36948 ft 506 kts 233°
2026-05-09 13:55 61.86788 -173.74953 36949 ft 505 kts 233°
2026-05-09 13:56 61.82469 -173.86665 36948 ft 505 kts 233°
2026-05-09 13:56 61.78130 -173.98374 36955 ft 505 kts 233°
2026-05-09 13:57 61.73788 -174.10030 36955 ft 504 kts 233°
2026-05-09 13:57 61.69440 -174.21644 36956 ft 504 kts 232°
2026-05-09 13:58 61.65115 -174.33137 36962 ft 504 kts 232°
2026-05-09 13:58 61.60749 -174.44681 36962 ft 504 kts 232°
2026-05-09 13:59 61.56375 -174.56200 36962 ft 504 kts 232°
2026-05-09 13:59 61.51987 -174.67655 36966 ft 503 kts 232°
2026-05-09 14:00 61.49045 -174.75291 36965 ft 503 kts 232°
2026-05-09 14:00 61.43187 -174.90431 36972 ft 503 kts 231°
2026-05-09 14:01 61.38778 -175.01772 36976 ft 503 kts 231°
2026-05-09 14:01 61.35108 -175.11168 36975 ft 502 kts 231°
2026-05-09 14:02 61.29970 -175.24261 36977 ft 502 kts 231°
2026-05-09 14:02 61.26257 -175.33676 36976 ft 502 kts 231°
2026-05-09 14:03 61.21816 -175.44884 36977 ft 502 kts 231°
2026-05-09 14:03 61.17391 -175.55999 36980 ft 502 kts 231°
2026-05-09 14:04 61.12942 -175.67120 36980 ft 502 kts 230°
2026-05-09 14:04 61.08470 -175.78241 36984 ft 502 kts 230°
2026-05-09 14:05 61.04002 -175.89301 36985 ft 502 kts 230°
2026-05-09 14:05 60.99519 -176.00343 36987 ft 502 kts 230°
2026-05-09 14:06 60.95032 -176.11343 36990 ft 502 kts 230°
2026-05-09 14:06 60.90530 -176.22326 36985 ft 502 kts 230°
2026-05-09 14:07 60.86054 -176.33196 36991 ft 501 kts 230°
2026-05-09 14:07 60.81539 -176.44106 36989 ft 501 kts 230°
2026-05-09 14:08 60.77017 -176.54980 36994 ft 501 kts 229°
2026-05-09 14:08 60.72492 -176.65811 36993 ft 501 kts 229°
2026-05-09 14:09 60.67982 -176.76554 36995 ft 500 kts 229°
2026-05-09 14:09 60.63447 -176.87309 36997 ft 500 kts 229°
2026-05-09 14:10 60.56616 -177.03410 37000 ft 500 kts 229°
2026-05-09 14:11 60.52075 -177.14050 36998 ft 500 kts 229°
2026-05-09 14:11 60.47511 -177.24697 36996 ft 500 kts 229°
2026-05-09 14:12 60.42933 -177.35325 36999 ft 500 kts 229°
2026-05-09 14:12 60.38355 -177.45904 36997 ft 500 kts 228°
2026-05-09 14:13 60.33773 -177.56442 36999 ft 499 kts 228°
2026-05-09 14:15 60.15420 -177.98448 36997 ft 499 kts 229°
2026-05-09 14:15 60.10980 -178.09144 36999 ft 499 kts 230°
2026-05-09 14:16 60.06557 -178.19746 36997 ft 499 kts 229°
2026-05-09 14:16 60.02082 -178.30348 36998 ft 498 kts 229°
2026-05-09 14:17 59.97593 -178.40900 36998 ft 498 kts 229°
2026-05-09 14:17 59.93095 -178.51417 36995 ft 498 kts 229°
2026-05-09 14:18 59.88587 -178.61911 36995 ft 498 kts 229°
2026-05-09 14:18 59.84076 -178.72370 36994 ft 498 kts 229°
2026-05-09 14:19 59.79556 -178.82801 36993 ft 498 kts 229°
2026-05-09 14:19 59.75030 -178.93198 36991 ft 497 kts 228°
2026-05-09 14:20 59.70501 -179.03556 36991 ft 497 kts 228°
2026-05-09 14:20 59.65965 -179.13883 36989 ft 497 kts 228°
2026-05-09 14:21 59.59143 -179.29327 36990 ft 497 kts 228°
2026-05-09 14:21 59.54613 -179.39526 36990 ft 497 kts 228°
2026-05-09 14:22 59.50043 -179.49768 36989 ft 497 kts 228°
2026-05-09 14:22 59.45476 -179.59958 36988 ft 497 kts 227°
2026-05-09 14:23 59.40889 -179.70147 36991 ft 497 kts 227°
2026-05-09 14:23 59.36328 -179.80237 36987 ft 497 kts 227°